Location: Vinland
(47.7731°N, 122.6974°W)
Time: 13:09:57
(UTC+00:00)

Tiros 1 - Pass Details

Date: 03 April 2023
Orbit: 627 x 660 km, 48.4° (Epoch: 28 May)

Event Time Altitude Azimuth Distance (km) Brightness Sun altitude
Exits shadow 10:28:45 29° 100° (E) 1,208 8.7 -29.3°
Drops below altitude 10° 10:31:22 10° 80° (E) 2,077 10.3 -29.0°
Sets 10:33:48 0° 74° (ENE) 2,993 11.4 -28.7°
